This demonstration page uses our WeatherBlox Daily Observations layout. Learn more.

Left ArrowRight Arrow

39.29038, -76.61219

Hourly Observations for July 15, 2020

Temp ( °F °C ) Dew Point ( °F °C ) Humidity (%) Winds ( mph kmh ) Pressure ( in mb ) Visibility ( mi km ) Precip ( " mm )
12:54 am 00:54 Mostly Clear 72 22.2 64 17.8 76 76 Calm 30.06 1018 10 16 0.00 0.00
1:54 am 01:54 Clear 72 22.2 64 17.8 76 76 Calm 30.06 1018 10 16 0.00 0.00
2:54 am 02:54 Mostly Clear 68 20 64 17.8 87 87 WSW 3 6 30.06 1018 10 16 0.00 0.00
3:54 am 03:54 Mostly Cloudy 69 20.6 64 17.8 84 84 Calm 30.07 1018 10 16 0.00 0.00
4:54 am 04:54 Mostly Cloudy 67 19.4 63 17.2 87 87 Calm 30.09 1019 10 16 0.00 0.00
5:54 am 05:54 Mostly Cloudy 68 20 63 17.2 84 84 Calm 30.10 1019 10 16 0.00 0.00
6:54 am 06:54 Mostly Cloudy 70 21.1 64 17.8 82 82 Calm 30.11 1020 10 16 0.00 0.00
7:54 am 07:54 Partly Cloudy 77 25 65 18.3 66 66 Calm 30.12 1020 10 16 0.00 0.00
8:54 am 08:54 Mostly Sunny 81 27.2 65 18.3 58 58 E 5 7 30.12 1020 10 16 0.00 0.00
9:54 am 09:54 Mostly Sunny 83 28.3 65 18.3 55 55 E 6 9 30.12 1020 10 16 0.00 0.00
10:54 am 10:54 Mostly Sunny 86 30 64 17.8 48 48 NE 5 7 30.13 1020 10 16 0.00 0.00
11:54 am 11:54 Mostly Cloudy 86 30 65 18.3 49 49 VRB 3 6 30.14 1021 10 16 0.00 0.00
12:54 pm 12:54 Mostly Cloudy 89 31.7 62 16.7 41 41 VRB 3 6 30.14 1021 10 16 0.00 0.00
1:54 pm 13:54 Mostly Cloudy 89 31.7 66 18.9 47 47 E 12 19 30.13 1020 10 16 0.00 0.00
2:54 pm 14:54 Mostly Cloudy 89 31.7 62 16.7 41 41 ESE 9 15 30.13 1020 10 16 0.00 0.00
3:54 pm 15:54 Mostly Cloudy 90 32.2 63 17.2 41 41 SE 9 15 30.12 1020 10 16 0.00 0.00
4:54 pm 16:54 Partly Cloudy 89 31.7 62 16.7 41 41 VRB 7 11 30.11 1020 10 16 0.00 0.00
5:54 pm 17:54 Partly Cloudy 89 31.7 61 16.1 39 39 S 8 13 30.11 1020 10 16 0.00 0.00
6:54 pm 18:54 Partly Cloudy 88 31.1 60 15.6 39 39 SE 8 13 30.11 1020 10 16 0.00 0.00
7:54 pm 19:54 Partly Cloudy 83 28.3 70 21.1 65 65 ESE 16 26 30.12 1020 10 16 0.00 0.00
8:54 pm 20:54 Mostly Clear 80 26.7 70 21.1 71 71 ESE 12 19 30.13 1020 10 16 0.00 0.00
9:54 pm 21:54 Partly Cloudy 77 25 70 21.1 79 79 E 12 19 30.15 1021 10 16 0.00 0.00
10:33 pm 22:33 Mostly Cloudy 77 25 68 20 74 74 ESE 10 17 30.15 1021 10 16 0.00 0.00
10:54 pm 22:54 Mostly Cloudy 76 24.4 68 20 77 77 E 12 19 30.16 1021 10 16 0.00 0.00
11:54 pm 23:54 Mostly Cloudy 76 24.4 68 20 77 77 ESE 8 13 30.18 1022 10 16 0.00 0.00

Powered by AerisWeather